User: anonymous   Login
Location: Charleston
(38.3500°N, 81.6330°W)
Time: 01:28:57
(UTC-04:00)
Language:

Cosmos 2228 - Orbit

View from above orbital plane
View from above orbital plane
View from above satellite
View from above satellite

Ground track
Ground track

The orbit data is extracted from the following two-line orbital elements,

1 22286U 92094A   16152.11472644  .00000327  00000-0  33324-4 0  9999
2 22286  82.5216  14.2718 0019507 312.8579  47.0998 14.87452930265694
Epoch (UTC): 31 May 2016 02:45:12
Eccentricity: 0.0019507
inclination: 82.5216°
perigee height: 592 km
apogee height: 619 km
right ascension of ascending node: 14.2718°
argument of perigee: 312.8579°
revolutions per day: 14.87452930
mean anomaly at epoch: 47.0998°
orbit number at epoch: 26569

The dashed part of the orbit path shows where the satellite is in the earth's shadow,  

DLR